Location: *
(37.9750°S, 157.0202°W)
Time: 03:40:30
(UTC+00:00)

Daily predictions for brighter satellites

Satellite Brightness Start Highest point End
(mag) Time Altitude Azimuth Time Altitude Azimuth Time Altitude Azimuth
Cosmos 2058 2.9 05:45:10 10° N 05:49:08 62° E 05:53:09 10° SSE
YAOGAN 1 2.5 05:45:38 10° SSE 05:49:58 81° E 05:54:16 10° N
Cosmos 2142 Rocket 4.5 05:45:42 10° S 05:51:56 75° E 05:58:07 10° NNE
Lacrosse 5 rocket 1.6 05:48:54 10° SSW 05:52:41 50° SE 05:56:28 10° ENE
Resurs 1-3 3.6 05:48:44 10° SSE 05:53:08 82° ENE 05:57:28 10° N
Cosmos 1862 3.4 05:50:53 10° NNE 05:54:26 47° E 05:58:03 10° SSE
BREEZE-M TANK 4.3 05:51:55 10° N 05:54:38 16° NE 05:57:03 10° E
SJ-6B 3.6 05:52:00 10° SE 05:55:05 26° E 05:58:06 10° NNE
Resurs 01 Rocket 2.3 05:51:03 10° SSE 05:55:06 33° E 05:59:05 10° NNE
NOAA 6 4.1 05:51:07 10° SSE 05:56:16 57° E 06:01:21 10° N
BREEZE-M DEB 2.4 05:55:35 10° NNW 05:57:38 36° NE 06:00:31 10° ESE
EXPRESS MD2 2.3 05:55:51 10° SW 05:58:34 58° SSE 06:00:25 13° ENE
Meteor 1-31 Rocket 3.9 05:56:03 10° SE 05:58:48 20° E 06:01:31 10° NE
IRAS Rocket 4.3 05:53:07 10° SSE 05:58:49 77° ENE 06:04:27 10° N
Cosmos 1782 2.5 06:00:36 10° S 06:04:16 75° E 06:07:53 10° N
Cosmos 2084 3.6 06:00:23 10° SW 06:04:40 73° WNW 06:08:56 10° NNE
PSLV R/B 3.8 06:00:32 10° S 06:04:46 73° WSW 06:08:54 10° NNW
Cosmos 1656 3.7 06:05:03 10° SSW 06:10:29 62° ESE 06:15:29 12° NE
Cosmos 1833 Rocket 2.7 06:06:30 10° N 06:12:00 58° ENE 06:17:33 10° SSE
Cosmos 1606 Rocket 4.4 06:09:33 10° SSE 06:13:31 33° ESE 06:16:32 15° NE
COBE Rocket 3.9 06:11:23 10° NNE 06:16:12 69° ESE 06:21:12 10° S
NOSS 3-4 (A) 4.3 06:09:46 10° NNW 06:18:30 62° ENE 06:26:54 10° SE
NOSS 3-4 (C) 4.3 06:09:51 10° NNW 06:18:32 62° ENE 06:26:55 10° SE
USA 59 Rocket 3.9 06:14:52 10° SSW 06:20:32 16° S 06:25:54 10° SE
Cosmos 1544 Rocket 4.2 06:16:23 10° SSW 06:20:41 56° W 06:24:55 10° N
Cosmos 1980 Rocket 4.3 06:18:21 10° SSE 06:20:59 13° SE 06:23:37 10° ESE
Atlas Centaur 2 3.3 06:25:32 10° NNW 06:30:09 26° NNE 06:33:10 19° ENE
Cosmos 1486 Rocket 4.0 06:26:44 10° SSW 06:32:03 76° ESE 06:36:05 17° NNE
ATLAS 5 CENTAUR R/B 3.8 06:29:44 16° NE 06:33:02 22° ENE 06:38:16 10° ESE
CARTOSAT-1 4.0 06:30:35 10° S 06:34:49 62° WSW 06:39:00 10° NNW
Cosmos 1092 Rocket 4.0 06:29:29 10° N 06:35:33 63° E 06:41:41 10° SSE
SL-8 R/B 4.4 06:32:21 10° WNW 06:37:03 56° SSW 06:41:48 10° SE
Cosmos 1892 Rocket 3.8 06:34:00 16° NNE 06:37:24 49° E 06:41:46 10° SSE
SPOT 5 3.7 06:33:22 10° SE 06:37:36 30° E 06:39:33 23° NE
NOSS 3-2 (C) 3.1 06:35:28 10° SW 06:41:37 85° WNW 06:44:58 22° NNE
Cosmos 1763 Rocket 3.3 06:40:15 10° NNW 06:45:18 79° ENE 06:50:24 10° SSE
Cosmos 2026 Rocket 4.0 06:40:56 10° N 06:47:13 90° E 06:53:41 10° S
Cosmos 1777 Rocket 4.0 06:43:05 10° SSW 06:48:23 80° ESE 06:51:37 24° NNE
Meteor 2-20 4.5 06:42:31 10° S 06:48:39 66° E 06:52:46 21° NNE
Cosmos 540 Rocket 3.3 06:45:20 10° N 06:50:24 74° ENE 06:55:32 10° SSE
Pegasus R/B 4.1 06:52:01 64° ESE 06:52:01 64° ESE 06:54:27 10° S
USA 281 3.9 06:47:51 10° SE 06:53:35 31° ENE 06:55:41 26° NE
Cosmos 1726 Rocket 3.3 06:52:06 10° S 06:56:14 73° E 06:57:57 34° NNE
Cosmos 2360 4.4 06:50:50 10° SSW 06:56:33 71° WNW 07:00:20 22° N
BREEZE-M DEB (TANK) 4.2 06:45:06 10° SW 06:56:41 57° NW 06:58:49 28° NNE
Cosmos 990 Rocket 4.4 06:52:54 10° S 06:57:59 46° ESE 06:59:58 31° ENE
RESURS DK-1 3.6 07:01:12 24° ESE 07:01:12 24° ESE 07:03:25 10° SE
Terra 3.3 06:56:48 10° SE 06:59:39 19° E 06:59:39 19° E
Hubble Space Telescope 2.7 06:58:50 10° NW 07:00:00 15° NNW 07:00:00 15° NNW
Lacrosse 4 Rocket 3.8 07:00:22 10° WSW 07:03:10 17° WNW 07:05:57 10° NNW
IRIDIUM 104 4.4 07:00:08 13° N 07:04:50 78° W 07:10:10 10° S
Cosmos 1346 Rocket 2.9 07:03:11 20° NNW 07:05:37 68° W 07:09:21 10° S
Cosmos 1461 4.4 07:03:34 10° S 07:06:08 18° SE 07:06:27 18° ESE
CSL-04 Rocket 3.5 07:04:10 10° SSE 07:09:31 70° ENE 07:12:41 25° N
Cosmos 2082 Rocket 2.7 07:10:21 35° ENE 07:11:08 36° ENE 07:16:20 10° SE
PAYLOAD B 4.4 07:08:36 10° SSE 07:14:10 55° E 07:16:19 35° NNE
Cosmos 1697 Rocket 2.7 07:09:25 10° SSW 07:15:08 75° ESE 07:17:17 39° NE
Meteor 2-20 Rocket 4.4 07:09:13 10° S 07:15:23 76° E 07:18:29 32° NNE
Feng Yun 1-1 Rocket 4.4 07:12:08 10° SSE 07:17:58 59° E 07:20:28 34° NNE
Meteor 1-26 Rocket 4.5 07:12:06 10° S 07:18:10 62° E 07:20:22 39° NE
Cosmos 841 Rocket 3.9 07:21:32 40° ENE 07:21:34 40° ENE 07:26:25 10° SE
Helios 1A 3.2 07:20:30 39° NNW 07:21:46 60° W 07:25:50 10° SSW
CZ-4 R/B 1.5 07:19:17 10° S 07:22:59 62° WSW 07:24:17 36° NW
Gbstr 26 Del rocket 3.1 07:17:46 10° SW 07:22:59 73° NW 07:23:52 56° NNE
Cosmos 1354 Rocket 4.0 07:18:44 10° SSW 07:24:06 82° WNW 07:25:58 42° N
Intercosmos 25 4.0 07:20:03 10° S 07:25:56 51° ESE 07:26:28 48° E
Cosmos 2221 4.4 07:24:09 10° SSE 07:26:19 17° ESE 07:26:19 17° ESE
Lacrosse 5 rocket 3.4 07:27:04 10° W 07:29:24 15° WNW 07:30:09 15° NW
Aureole 1 Rocket 3.8 07:26:41 10° S 07:31:04 36° ESE 07:31:04 36° ESE
Resurs 01 Rocket 4.2 07:27:55 10° SSW 07:31:13 21° WSW 07:34:29 10° WNW
Cosmos 468 Rocket 4.1 07:28:23 18° NNW 07:32:15 73° WSW 07:37:25 10° SSE
USA 238 DEB 3.5 07:26:47 10° SSW 07:33:21 70° SE 07:35:12 46° ENE
Exosat Rocket 4.1 07:31:38 41° NNE 07:33:25 52° ENE 07:38:43 10° SSE
USA 238 3.5 07:26:54 10° SSW 07:33:26 69° SE 07:35:18 46° ENE
SL-24 R/B 4.2 07:32:36 54° N 07:33:34 76° WNW 07:37:52 10° SSW
COSMOS 2406 4.3 07:35:09 28° E 07:35:09 28° E 07:38:54 10° SE
Cosmos 489 Rocket 4.3 07:30:51 30° N 07:34:09 76° ENE 07:40:26 10° SSE
MOS 1 4.3 07:29:21 10° SSE 07:35:04 61° ENE 07:36:16 50° NNE
SEDSat Delta rocket 4.3 07:29:09 10° WNW 07:34:51 40° N 07:34:51 40° N
Cosmos 2266 Rocket 4.0 07:34:46 46° NE 07:36:06 56° E 07:42:04 10° SSE
Okean-O 3.8 07:39:11 10° SSE 07:42:00 30° ESE 07:42:00 30° ESE
MOS 1-B 4.4 07:46:33 10° SSE 07:52:18 54° E 07:52:28 54° ENE
USA 215 3.1 07:46:49 10° SE 07:53:25 71° NE 07:59:57 10° NW
Cosmos 1758 Rocket 3.6 07:54:20 74° S 07:54:20 74° S 07:58:19 10° S
BREEZE M DEB (TANK) 2.8 07:57:26 52° W 07:58:10 69° SSW 08:06:02 10° SE
CZ-4B R/B 3.2 07:52:54 10° S 07:58:20 76° WSW 07:59:43 50° NNW
ADEOS 4.0 07:54:09 10° S 07:59:21 60° WSW 08:01:20 36° NW
Meteor 2-6 Rocket 4.0 07:58:11 10° S 08:03:52 79° E 08:04:12 76° NE
Cosmos-2242 3.8 08:00:00 10° SSW 08:03:58 42° W 08:03:58 42° W
Cosmos 1980 Rocket 2.0 08:00:04 10° SSW 08:05:49 86° ESE 08:06:15 77° NE
S3M 3.9 08:00:46 10° S 08:07:00 72° E 08:07:41 66° NE
Cosmos 2058 Rocket 4.4 08:07:19 10° SSW 08:11:13 31° W 08:11:37 31° WNW
Cosmos 1655 Rocket 4.1 08:11:17 57° E 08:11:20 57° E 08:17:28 10° SSE
USA 59 Rocket 3.1 08:05:03 10° SSW 08:13:39 32° SE 08:18:30 19° E
ATLAS 5 CENTAUR R/B 2.8 08:08:54 14° NW 08:15:13 76° SW 08:22:18 10° SSE
Okean O Rocket 2.1 08:10:57 10° S 08:14:34 58° S 08:14:34 58° S
ERS-1 Rocket 3.4 08:12:13 10° S 08:17:13 59° WSW 08:17:53 54° WNW
Atlas Centaur 2 3.6 08:12:05 10° WNW 08:15:10 29° NW 08:15:10 29° NW
IRS-1A Rocket 4.2 08:12:53 10° SSE 08:18:45 90° ENE 08:19:05 80° NNW
Cosmos 1898 Rocket 3.5 08:15:31 10° SSW 08:20:37 81° SSW 08:20:37 81° SSW
CZ-2C R/B 4.5 08:29:27 47° S 08:29:27 47° S 08:32:44 10° S
Cosmos 967 Rocket 4.4 08:29:31 10° SSW 08:35:48 69° ESE 08:35:53 69° ESE
Terra 2.9 08:33:30 10° S 08:37:55 38° WSW 08:38:17 37° W
USA 281 4.0 08:31:53 10° S 08:38:09 47° WSW 08:42:32 20° NW
Cosmos 2315 Rocket 3.9 08:32:12 10° S 08:38:29 84° W 08:38:37 84° NW
Cosmos 2360 Rocket 4.1 08:34:48 10° S 08:38:39 18° SE 08:39:19 18° ESE
Meteor 1-19 Rocket 4.3 08:33:56 10° S 08:39:41 80° SSE 08:39:41 80° SSE
Ariane Rocket 4.1 08:35:38 10° SSE 08:38:51 35° SE 08:38:51 35° SE
Cosmos 2333 Rocket 3.6 08:38:01 10° S 08:42:50 27° ESE 08:42:52 27° ESE
COSMOS 2455 3.3 08:37:32 10° SSW 08:43:19 50° SE 08:43:19 50° SE
Cosmos 2322 Rocket 3.9 08:39:12 10° S 08:43:31 22° SE 08:43:47 22° ESE
CZ-4B R/B 4.2 08:48:29 10° S 08:53:21 50° WSW 08:53:21 50° WSW
SL-16 R/B 3.0 08:48:36 10° S 08:53:30 44° SE 08:53:30 44° SE
Meteor 1-25 Rocket 4.4 08:55:31 71° SSW 08:55:31 71° SSW 09:00:47 10° S
Cosmos 2082 Rocket 3.8 08:52:03 18° WNW 08:55:12 30° WSW 09:00:13 10° S
Cosmos 2369 4.2 08:52:06 10° SSW 08:56:53 55° WSW 08:56:53 55° WSW
Spot 2 Rocket 4.5 08:58:35 10° S 09:03:14 41° WSW 09:03:14 41° WSW
Cosmos 2221 4.5 09:00:24 10° SSW 09:02:41 25° SW 09:02:41 25° SW
Cosmos 2278 4.4 08:59:57 10° SSW 09:04:43 47° SE 09:04:43 47° SE
Meteor 1-27 Rocket 4.1 09:03:56 10° S 09:08:24 58° S 09:08:24 58° S
Cosmos 2219 Rocket 4.0 09:10:02 10° S 09:14:08 20° SE 09:14:28 20° ESE
COSMOS 2406 4.4 09:17:06 34° W 09:18:03 36° WSW 09:23:23 10° S
CZ-2C R/B 4.5 09:25:42 31° SE 09:25:42 31° SE 09:29:29 10° S
Nadezhda 1 Rocket 4.3 09:51:34 10° S 09:56:47 64° SSW 09:56:47 64° SSW
USA 59 Rocket 1.5 09:54:41 10° SW 10:04:11 81° WNW 10:04:11 81° WNW
USA 267 3.3 10:08:01 72° SW 10:08:01 72° SW 10:13:54 10° SW
NOSS 3-1 (C) 4.4 10:09:05 10° SW 10:12:56 37° SW 10:12:56 37° SW
SeaSat 1 4.0 10:22:27 30° SW 10:22:27 30° SW 10:24:56 10° SSW
Cosmos 2360 Rocket 3.3 10:17:29 10° SSW 10:21:03 39° SW 10:21:03 39° SW
ATLAS 2AS CENTAUR R/B 3.2 10:24:58 52° ESE 10:24:58 52° ESE 10:30:47 10° SE
Cosmos 2333 Rocket 3.7 10:21:55 10° SW 10:24:52 28° WSW 10:24:52 28° WSW
Cosmos 2322 Rocket 3.5 10:22:22 10° SSW 10:25:34 32° SW 10:25:34 32° SW
SL-16 R/B 4.3 10:33:26 10° SW 10:35:20 17° WSW 10:35:20 17° WSW
IDEFIX/ARIANE 42P 3.8 10:43:44 37° SE 10:43:44 37° SE 10:47:47 10° S
Cosmos 2219 Rocket 3.4 10:52:55 10° SSW 10:56:08 34° SW 10:56:08 34° SW
CZ-2C R/B 4.5 10:58:29 10° SE 11:01:49 21° E 11:01:49 21° E
NOSS 3-1 (A) 4.3 10:57:43 10° SW 11:01:31 36° SW 11:01:31 36° SW
Cosmos 2154 Rocket 4.2 11:06:48 68° ESE 11:06:48 68° ESE 11:12:35 10° S
FENGYUN 3A 4.5 11:07:38 45° ESE 11:07:38 45° ESE 11:12:36 10° S
ALOS 2 4.4 11:05:25 10° S 11:07:44 29° S 11:07:44 29° S
Cosmos 2181 Rocket 4.2 11:07:18 10° S 11:12:59 65° SW 11:12:59 65° SW
Cosmos 2263 Rocket 4.4 11:17:49 13° ENE 11:18:11 14° E 11:20:52 10° ESE
NPP 4.1 11:19:51 60° SSE 11:19:51 60° SSE 11:24:23 10° S
ADEOS II 4.1 11:21:43 17° E 11:23:52 22° ESE 11:27:52 10° SSE
ALOS 4.3 11:27:26 20° E 11:28:21 21° ESE 11:31:49 10° SSE
COSMOS 2428 3.1 11:28:22 10° SSW 11:33:01 59° SSW 11:33:01 59° SSW
Cosmos 2322 4.3 11:30:00 10° SSW 11:34:16 50° SW 11:34:16 50° SW
CZ-2D R/B 3.1 11:37:09 39° E 11:37:56 41° ESE 11:42:57 10° S
MSX 4.3 11:39:59 52° SW 11:39:59 52° SW 11:44:38 10° SSW
Cosmos 2297 Rocket 2.3 11:39:57 70° S 11:39:57 70° S 11:45:03 10° SSE
Meteor 1-21 4.3 11:33:53 10° S 11:39:05 74° S 11:39:05 74° S
H-2A R/B 3.8 11:45:33 26° ESE 11:45:55 26° ESE 11:49:26 10° SSE
Meteor 2-10 Rocket 4.2 11:48:59 45° E 11:48:59 45° E 11:53:54 10° SSE
USA 59 Rocket 3.4 11:47:13 10° WSW 11:49:51 14° W 11:49:51 14° W
Resurs 1-4 Rocket 2.4 11:51:47 61° E 11:52:05 62° ESE 11:57:24 10° S
Cosmos 1610 Rocket 4.4 11:53:07 69° WSW 11:53:07 69° WSW 11:59:14 10° S
